| time (UTC) | temp F | wind direction | speed MPH | gust MPH | rain 1hr in | rain 24hr in | rain mn in | humidity % | barometer mb |
| 20260902124610 | 77 | 174 | 2.0 | 9.0 | 0.00 | 0.00 | 0.00 | 92 | 1014.4 |
| 20260902123607 | 76 | 165 | 0.0 | 5.0 | 0.00 | 0.00 | 0.00 | 93 | 1014.5 |
| 20260902122607 | 76 | 212 | 0.0 | 0.0 | 0.00 | 0.00 | 0.00 | 93 | 1014.4 |
| 20260902121607 | 76 | 188 | 0.0 | 2.0 | 0.00 | 0.00 | 0.00 | 92 | 1014.4 |
| 20260902120608 | 76 | 178 | 0.0 | 4.0 | 0.00 | 0.00 | 0.00 | 92 | 1014.4 |
| 20260902115608 | 76 | 274 | 0.0 | 4.0 | 0.00 | 0.00 | 0.00 | 92 | 1014.3 |
| 20260902114608 | 76 | 173 | 2.0 | 9.0 | 0.00 | 0.00 | 0.00 | 92 | 1014.2 |
| 20260902113608 | 76 | 160 | 0.0 | 7.0 | 0.00 | 0.00 | 0.00 | 92 | 1014.2 |
| 20260902112629 | 76 | 148 | 0.0 | 2.0 | 0.00 | 0.00 | 0.00 | 92 | 1014.1 |
| 20260902111604 | 76 | 170 | 0.0 | 4.0 | 0.00 | 0.00 | 0.00 | 92 | 1014.0 |
| 20260902110605 | 76 | 178 | 0.0 | 5.0 | 0.00 | 0.00 | 0.00 | 93 | 1014.1 |
| 20260902105601 | 76 | 315 | 2.0 | 7.0 | 0.00 | 0.00 | 0.00 | 93 | 1014.4 |
| 20260902104603 | 76 | 326 | 2.0 | 9.0 | 0.00 | 0.00 | 0.00 | 93 | 1014.7 |
| 20260902103602 | 76 | 304 | 0.0 | 5.0 | 0.00 | 0.00 | 0.00 | 93 | 1014.6 |
| 20260902102601 | 76 | 277 | 0.0 | 7.0 | 0.00 | 0.00 | 0.00 | 92 | 1014.4 |
| 20260902101602 | 76 | 323 | 0.0 | 4.0 | 0.00 | 0.00 | 0.00 | 92 | 1014.4 |
| 20260902100605 | 76 | 234 | 0.0 | 2.0 | 0.00 | 0.00 | 0.00 | 92 | 1014.0 |
| 20260902095604 | 76 | 236 | 0.0 | 2.0 | 0.00 | 0.00 | 0.00 | 92 | 1013.9 |
| 20260902094600 | 76 | 236 | 0.0 | 2.0 | 0.00 | 0.00 | 0.00 | 92 | 1014.0 |
| 20260902093558 | 76 | 236 | 0.0 | 2.0 | 0.00 | 0.00 | 0.00 | 92 | 1014.1 |
| 20260902092558 | 76 | 236 | 0.0 | 2.0 | 0.00 | 0.00 | 0.00 | 92 | 1014.2 |
| 20260902091600 | 76 | 236 | 0.0 | 2.0 | 0.00 | 0.00 | 0.00 | 92 | 1014.2 |
| 20260902090558 | 76 | 181 | 0.0 | 2.0 | 0.00 | 0.00 | 0.00 | 92 | 1014.2 |
| 20260902085600 | 76 | 184 | 0.0 | 2.0 | 0.00 | 0.00 | 0.00 | 92 | 1014.1 |
| 20260902084559 | 76 | 178 | 0.0 | 2.0 | 0.00 | 0.00 | 0.00 | 92 | 1013.9 |
| 20260902083600 | 76 | 178 | 0.0 | 9.0 | 0.00 | 0.00 | 0.00 | 92 | 1013.9 |
| 20260902082600 | 75 | 171 | 0.0 | 4.0 | 0.00 | 0.00 | 0.00 | 92 | 1013.9 |
| 20260902081557 | 75 | 188 | 0.0 | 4.0 | 0.00 | 0.00 | 0.00 | 91 | 1013.9 |
| 20260902080600 | 75 | 188 | 0.0 | 0.0 | 0.00 | 0.00 | 0.00 | 91 | 1014.0 |
| 20260902075556 | 75 | 163 | 0.0 | 0.0 | 0.00 | 0.00 | 0.00 | 91 | 1014.1 |
| 20260902074552 | 75 | 163 | 0.0 | 0.0 | 0.00 | 0.00 | 0.00 | 90 | 1014.1 |
| 20260902073556 | 75 | 163 | 0.0 | 0.0 | 0.00 | 0.00 | 0.00 | 90 | 1013.9 |
| 20260902072554 | 75 | 163 | 0.0 | 0.0 | 0.00 | 0.00 | 0.00 | 90 | 1013.7 |
| 20260902071554 | 75 | 163 | 0.0 | 0.0 | 0.00 | 0.00 | 0.00 | 90 | 1013.8 |
| 20260902070552 | 75 | 163 | 0.0 | 0.0 | 0.00 | 0.00 | 0.00 | 89 | 1013.9 |
| 20260902065554 | 75 | 163 | 0.0 | 0.0 | 0.00 | 0.00 | 0.00 | 89 | 1013.8 |
| 20260902064551 | 75 | 163 | 0.0 | 0.0 | 0.00 | 0.00 | 0.00 | 89 | 1013.8 |
| 20260902063552 | 76 | 163 | 0.0 | 0.0 | 0.00 | 0.00 | 0.00 | 89 | 1013.9 |
| 20260902062550 | 76 | 163 | 0.0 | 0.0 | 0.00 | 0.00 | 0.00 | 89 | 1014.2 |
| 20260902061551 | 76 | 163 | 0.0 | 0.0 | 0.00 | 0.00 | 0.00 | 89 | 1014.2 |
| 20260902060551 | 76 | 163 | 0.0 | 0.0 | 0.00 | 0.00 | 0.00 | 89 | 1014.3 |
| 20260902055556 | 76 | 163 | 0.0 | 2.0 | 0.00 | 0.00 | 0.00 | 88 | 1014.4 |
| 20260902054553 | 76 | 163 | 0.0 | 0.0 | 0.00 | 0.00 | 0.00 | 88 | 1014.5 |
| 20260902053553 | 76 | 163 | 0.0 | 0.0 | 0.00 | 0.00 | 0.00 | 88 | 1014.6 |
| 20260902052547 | 76 | 163 | 0.0 | 0.0 | 0.00 | 0.00 | 0.00 | 88 | 1014.6 |
| 20260902051544 | 76 | 163 | 0.0 | 2.0 | 0.00 | 0.00 | 0.00 | 88 | 1014.6 |
| 20260902050546 | 77 | 163 | 0.0 | 4.0 | 0.00 | 0.00 | 0.00 | 88 | 1014.7 |
| 20260902045545 | 77 | 187 | 0.0 | 0.0 | 0.00 | 0.00 | 0.00 | 87 | 1014.7 |
| 20260902044547 | 77 | 187 | 0.0 | 0.0 | 0.00 | 0.00 | 0.00 | 87 | 1014.7 |
| 20260902043544 | 77 | 180 | 0.0 | 0.0 | 0.00 | 0.00 | 0.00 | 86 | 1014.6 |
| 20260902042543 | 77 | 180 | 0.0 | 0.0 | 0.00 | 0.00 | 0.00 | 86 | 1014.5 |
| 20260902041546 | 78 | 180 | 0.0 | 0.0 | 0.00 | 0.00 | 0.00 | 86 | 1014.5 |
| 20260902040545 | 78 | 180 | 0.0 | 0.0 | 0.00 | 0.00 | 0.00 | 86 | 1014.4 |
| 20260902035537 | 78 | 180 | 0.0 | 0.0 | 0.00 | 0.00 | 0.00 | 85 | 1014.5 |
| 20260902034539 | 78 | 180 | 0.0 | 0.0 | 0.00 | 0.00 | 0.00 | 85 | 1014.5 |
| 20260902033537 | 78 | 180 | 0.0 | 0.0 | 0.00 | 0.00 | 0.00 | 85 | 1014.4 |
| 20260902032542 | 79 | 180 | 0.0 | 0.0 | 0.00 | 0.00 | 0.00 | 85 | 1014.4 |
| 20260902031538 | 79 | 180 | 0.0 | 0.0 | 0.00 | 0.00 | 0.00 | 85 | 1014.4 |
| 20260902030541 | 79 | 180 | 0.0 | 0.0 | 0.00 | 0.00 | 0.00 | 84 | 1014.2 |
| 20260902025538 | 80 | 180 | 0.0 | 0.0 | 0.00 | 0.00 | 0.00 | 84 | 1014.1 |
| 20260902024540 | 80 | 180 | 0.0 | 0.0 | 0.00 | 0.00 | 0.00 | 84 | 1014.1 |
| 20260902023536 | 80 | 174 | 0.0 | 0.0 | 0.00 | 0.00 | 0.00 | 83 | 1014.2 |
| 20260902022541 | 81 | 174 | 0.0 | 0.0 | 0.00 | 0.00 | 0.00 | 83 | 1014.2 |
| 20260902021556 | 81 | 174 | 0.0 | 0.0 | 0.00 | 0.00 | 0.00 | 83 | 1014.0 |
| 20260902020547 | 81 | 174 | 0.0 | 0.0 | 0.00 | 0.00 | 0.00 | 82 | 1014.1 |
| 20260902015531 | 81 | 174 | 0.0 | 4.0 | 0.00 | 0.00 | 0.00 | 82 | 1014.2 |
| 20260902014532 | 82 | 195 | 0.0 | 4.0 | 0.00 | 0.00 | 0.00 | 82 | 1014.3 |
| 20260902013533 | 82 | 174 | 0.0 | 4.0 | 0.00 | 0.00 | 0.00 | 82 | 1014.3 |
| 20260902012533 | 82 | 316 | 0.0 | 5.0 | 0.00 | 0.00 | 0.00 | 82 | 1014.2 |
| 20260902011532 | 83 | 187 | 0.0 | 2.0 | 0.00 | 0.00 | 0.00 | 81 | 1014.2 |
| 20260902010530 | 83 | 189 | 0.0 | 5.0 | 0.00 | 0.00 | 0.00 | 81 | 1014.0 |
| 20260902005530 | 83 | 179 | 0.0 | 7.0 | 0.00 | 0.00 | 0.00 | 81 | 1014.0 |
| 20260902004532 | 83 | 177 | 0.0 | 7.0 | 0.00 | 0.00 | 0.00 | 80 | 1013.8 |
| 20260902003524 | 83 | 232 | 0.0 | 7.0 | 0.00 | 0.00 | 0.00 | 79 | 1013.7 |
| 20260902002525 | 84 | 173 | 0.0 | 0.0 | 0.00 | 0.00 | 0.00 | 79 | 1013.7 |
| 20260902001526 | 84 | 173 | 0.0 | 0.0 | 0.00 | 0.00 | 0.00 | 79 | 1013.6 |
| 20260902000523 | 84 | 173 | 0.0 | 0.0 | 0.00 | 0.00 | 0.00 | 78 | 1013.7 |
| 20260901235523 | 84 | 173 | 0.0 | 0.0 | 0.00 | 0.00 | 0.00 | 78 | 1013.8 |
| 20260901234524 | 84 | 173 | 0.0 | 0.0 | 0.00 | 0.00 | 0.00 | 78 | 1013.8 |
| 20260901233528 | 85 | 173 | 0.0 | 2.0 | 0.00 | 0.00 | 0.00 | 77 | 1013.8 |
| 20260901232524 | 85 | 175 | 0.0 | 2.0 | 0.00 | 0.00 | 0.00 | 76 | 1013.9 |
| 20260901231528 | 85 | 229 | 0.0 | 2.0 | 0.00 | 0.00 | 0.00 | 75 | 1013.9 |
| 20260901230518 | 86 | 229 | 0.0 | 5.0 | 0.00 | 0.00 | 0.00 | 74 | 1013.9 |
| 20260901225516 | 86 | 244 | 2.0 | 7.0 | 0.00 | 0.00 | 0.00 | 73 | 1013.8 |
| 20260901224516 | 87 | 181 | 2.0 | 5.0 | 0.00 | 0.00 | 0.00 | 72 | 1013.8 |
| 20260901223518 | 87 | 154 | 2.0 | 7.0 | 0.00 | 0.00 | 0.00 | 72 | 1013.8 |
| 20260901222516 | 87 | 203 | 2.0 | 5.0 | 0.00 | 0.00 | 0.00 | 72 | 1013.8 |
| 20260901221518 | 87 | 232 | 2.0 | 7.0 | 0.00 | 0.00 | 0.00 | 71 | 1013.7 |
| 20260901220516 | 87 | 158 | 2.0 | 7.0 | 0.00 | 0.00 | 0.00 | 70 | 1013.6 |
| 20260901215519 | 87 | 165 | 2.0 | 7.0 | 0.00 | 0.00 | 0.00 | 71 | 1013.6 |
| 20260901214521 | 87 | 260 | 2.0 | 7.0 | 0.00 | 0.00 | 0.00 | 70 | 1013.5 |
| 20260901213516 | 87 | 203 | 2.0 | 9.0 | 0.00 | 0.00 | 0.00 | 70 | 1013.6 |
| 20260901212521 | 87 | 180 | 2.0 | 7.0 | 0.00 | 0.00 | 0.00 | 72 | 1013.7 |
| 20260901211518 | 87 | 191 | 2.0 | 7.0 | 0.00 | 0.00 | 0.00 | 70 | 1013.7 |
| 20260901210516 | 87 | 169 | 4.0 | 12.0 | 0.00 | 0.00 | 0.00 | 69 | 1013.8 |
| 20260901205516 | 88 | 270 | 2.0 | 11.0 | 0.00 | 0.00 | 0.00 | 69 | 1013.7 |
| 20260901204513 | 88 | 211 | 4.0 | 11.0 | 0.00 | 0.00 | 0.00 | 69 | 1013.7 |
| 20260901203515 | 88 | 190 | 2.0 | 11.0 | 0.00 | 0.00 | 0.00 | 70 | 1013.8 |
| 20260901202513 | 87 | 157 | 2.0 | 9.0 | 0.00 | 0.00 | 0.00 | 70 | 1013.9 |
| 20260901201516 | 88 | 180 | 4.0 | 9.0 | 0.00 | 0.00 | 0.00 | 70 | 1013.9 |
| 20260901200513 | 87 | 151 | 2.0 | 9.0 | 0.00 | 0.00 | 0.00 | 71 | 1013.8 |
| 20260901195512 | 87 | 221 | 2.0 | 9.0 | 0.00 | 0.00 | 0.00 | 71 | 1013.9 |
| 20260901194516 | 87 | 144 | 4.0 | 9.0 | 0.00 | 0.00 | 0.00 | 72 | 1013.9 |
| 20260901193515 | 88 | 344 | 2.0 | 14.0 | 0.00 | 0.00 | 0.00 | 70 | 1014.0 |
| 20260901192512 | 88 | 280 | 2.0 | 9.0 | 0.00 | 0.00 | 0.00 | 73 | 1014.1 |
| 20260901191515 | 87 | 173 | 4.0 | 9.0 | 0.00 | 0.00 | 0.00 | 72 | 1014.1 |
| 20260901190513 | 89 | 316 | 2.0 | 12.0 | 0.00 | 0.00 | 0.00 | 68 | 1014.0 |
| 20260901185533 | 89 | 234 | 2.0 | 12.0 | 0.00 | 0.01 | 0.00 | 69 | 1014.0 |
| 20260901184519 | 88 | 338 | 4.0 | 7.0 | 0.00 | 0.01 | 0.00 | 71 | 1013.9 |
| 20260901183511 | 88 | 342 | 2.0 | 11.0 | 0.00 | 0.01 | 0.00 | 72 | 1013.9 |
| 20260901182514 | 88 | 172 | 4.0 | 11.0 | 0.00 | 0.01 | 0.00 | 71 | 1014.0 |
| 20260901181512 | 88 | 315 | 2.0 | 11.0 | 0.00 | 0.01 | 0.00 | 71 | 1013.9 |
| 20260901180511 | 87 | 186 | 2.0 | 14.0 | 0.00 | 0.01 | 0.00 | 72 | 1013.9 |
| 20260901175529 | 86 | 319 | 2.0 | 11.0 | 0.00 | 0.01 | 0.00 | 74 | 1014.0 |
| 20260901174510 | 86 | 249 | 4.0 | 12.0 | 0.00 | 0.01 | 0.00 | 74 | 1014.1 |
| 20260901173510 | 87 | 178 | 4.0 | 9.0 | 0.00 | 0.01 | 0.00 | 73 | 1014.0 |
| 20260901172512 | 86 | 195 | 2.0 | 9.0 | 0.00 | 0.01 | 0.00 | 72 | 1014.1 |
| 20260901171507 | 86 | 146 | 2.0 | 9.0 | 0.00 | 0.01 | 0.00 | 73 | 1014.1 |
| 20260901170509 | 85 | 342 | 2.0 | 7.0 | 0.00 | 0.01 | 0.00 | 76 | 1014.0 |
| 20260901165510 | 85 | 331 | 2.0 | 9.0 | 0.00 | 0.01 | 0.00 | 75 | 1014.2 |
| 20260901164509 | 85 | 244 | 2.0 | 11.0 | 0.00 | 0.01 | 0.00 | 76 | 1014.5 |
| 20260901163509 | 84 | 266 | 2.0 | 9.0 | 0.00 | 0.01 | 0.00 | 77 | 1014.5 |
| 20260901162509 | 84 | 237 | 2.0 | 9.0 | 0.00 | 0.01 | 0.00 | 78 | 1014.7 |
| 20260901161510 | 83 | 296 | 2.0 | 7.0 | 0.00 | 0.01 | 0.00 | 80 | 1014.8 |
| 20260901160503 | 83 | 308 | 2.0 | 7.0 | 0.00 | 0.01 | 0.00 | 80 | 1014.8 |
| 20260901155504 | 83 | 151 | 2.0 | 7.0 | 0.00 | 0.01 | 0.00 | 80 | 1014.8 |
| 20260901154501 | 82 | 227 | 2.0 | 9.0 | 0.00 | 0.01 | 0.00 | 80 | 1014.8 |
| 20260901153501 | 82 | 182 | 2.0 | 7.0 | 0.00 | 0.01 | 0.00 | 81 | 1014.8 |
| 20260901152503 | 81 | 184 | 0.0 | 9.0 | 0.00 | 0.01 | 0.00 | 82 | 1014.8 |
| 20260901151501 | 81 | 240 | 2.0 | 9.0 | 0.00 | 0.01 | 0.00 | 83 | 1014.9 |
| 20260901150516 | 81 | 170 | 2.0 | 5.0 | 0.00 | 0.01 | 0.00 | 83 | 1014.8 |
| 20260901145504 | 80 | 181 | 0.0 | 5.0 | 0.00 | 0.01 | 0.00 | 85 | 1014.9 |
| 20260901144503 | 79 | 189 | 0.0 | 7.0 | 0.00 | 0.01 | 0.00 | 87 | 1014.8 |
| 20260901143501 | 77 | 285 | 0.0 | 4.0 | 0.00 | 0.01 | 0.00 | 91 | 1014.9 |
| 20260901142502 | 76 | 174 | 0.0 | 7.0 | 0.00 | 0.01 | 0.00 | 93 | 1014.9 |
| 20260901141502 | 75 | 270 | 2.0 | 5.0 | 0.00 | 0.01 | 0.00 | 94 | 1014.8 |
| 20260901140504 | 75 | 200 | 0.0 | 0.0 | 0.00 | 0.01 | 0.00 | 95 | 1014.8 |
| 20260901135502 | 74 | 317 | 0.0 | 0.0 | 0.00 | 0.01 | 0.00 | 95 | 1014.8 |
| 20260901134502 | 74 | 299 | 0.0 | 4.0 | 0.00 | 0.01 | 0.00 | 95 | 1014.8 |
| 20260901133501 | 74 | 309 | 0.0 | 4.0 | 0.00 | 0.01 | 0.00 | 95 | 1015.0 |
| 20260901132504 | 73 | 183 | 0.0 | 4.0 | 0.00 | 0.01 | 0.00 | 95 | 1014.9 |
| 20260901131501 | 73 | 261 | 0.0 | 2.0 | 0.00 | 0.01 | 0.00 | 95 | 1014.8 |
| 20260901130458 | 72 | 177 | 2.0 | 5.0 | 0.00 | 0.01 | 0.00 | 95 | 1014.8 |